Time,TemperatureF,DewpointF,PressureIn,WindDirection,WindDirectionDegrees,WindSpeedMPH,WindSpeedGustMPH,Humidity,HourlyPrecipIn,Conditions,Clouds,dailyrainin,SoftwareType,DateUTC
2013-01-04 09:26:00,20.7,14.0,30.12,West,259,3.0,-999.0,74,-99.99,,,0.00,weatherlink.com 1.10,2013-01-04 15:26:00,
2013-01-04 09:44:00,21.5,14.0,30.13,WSW,240,4.0,-999.0,72,-99.99,,,0.00,weatherlink.com 1.10,2013-01-04 15:44:00,
2013-01-04 09:58:00,22.3,14.0,30.13,West,268,1.0,-999.0,71,-99.99,,,0.00,weatherlink.com 1.10,2013-01-04 15:58:00,
2013-01-04 10:14:00,23.0,15.0,30.13,West,271,5.0,-999.0,70,-99.99,,,0.00,weatherlink.com 1.10,2013-01-04 16:14:00,
2013-01-04 10:31:00,23.4,15.0,30.14,WSW,256,3.0,-999.0,69,-99.99,,,0.00,weatherlink.com 1.10,2013-01-04 16:31:00,
2013-01-04 10:47:00,24.0,15.0,30.14,WSW,243,4.0,-999.0,68,-99.99,,,0.00,weatherlink.com 1.10,2013-01-04 16:47:00,
2013-01-04 11:04:00,24.5,15.0,30.14,West,275,7.0,-999.0,67,-99.99,,,0.00,weatherlink.com 1.10,2013-01-04 17:04:00,
2013-01-04 11:20:00,25.0,15.0,30.14,WSW,243,6.0,-999.0,66,-99.99,,,0.00,weatherlink.com 1.10,2013-01-04 17:20:00,
2013-01-04 11:34:00,25.4,15.0,30.14,West,275,3.0,-999.0,65,-99.99,,,0.00,weatherlink.com 1.10,2013-01-04 17:34:00,
2013-01-04 11:48:00,26.1,16.0,30.14,SW,226,4.0,-999.0,65,-99.99,,,0.00,weatherlink.com 1.10,2013-01-04 17:48:00,
2013-01-04 12:03:00,26.9,16.0,30.14,WNW,283,5.0,-999.0,64,-99.99,,,0.00,weatherlink.com 1.10,2013-01-04 18:03:00,
2013-01-04 12:17:00,27.2,16.0,30.14,WNW,283,4.0,-999.0,63,-99.99,,,0.00,weatherlink.com 1.10,2013-01-04 18:17:00,
2013-01-04 12:32:00,27.4,17.0,30.13,South,179,4.0,-999.0,64,-99.99,,,0.00,weatherlink.com 1.10,2013-01-04 18:32:00,
2013-01-04 12:46:00,27.2,17.0,30.13,South,183,0.0,-999.0,65,-99.99,,,0.00,weatherlink.com 1.10,2013-01-04 18:46:00,
2013-01-04 13:00:00,27.3,17.0,30.13,South,175,2.0,-999.0,64,-99.99,,,0.00,weatherlink.com 1.10,2013-01-04 19:00:00,
2013-01-04 13:14:00,27.4,17.0,30.12,South,181,6.0,-999.0,64,-99.99,,,0.00,weatherlink.com 1.10,2013-01-04 19:14:00,
2013-01-04 13:29:00,27.6,17.0,30.12,SSE,163,2.0,-999.0,64,-99.99,,,0.00,weatherlink.com 1.10,2013-01-04 19:29:00,
2013-01-04 13:43:00,27.5,17.0,30.12,South,170,5.0,-999.0,64,-99.99,,,0.00,weatherlink.com 1.10,2013-01-04 19:43:00,
2013-01-04 14:08:00,27.5,17.0,30.12,SSE,158,4.0,-999.0,65,-99.99,,,0.00,weatherlink.com 1.10,2013-01-04 20:08:00,
2013-01-04 14:54:00,27.4,17.0,30.13,West,260,4.0,-999.0,65,-99.99,,,0.00,weatherlink.com 1.10,2013-01-04 20:54:00,
2013-01-04 15:09:00,27.5,17.0,30.13,SW,221,3.0,-999.0,64,-99.99,,,0.00,weatherlink.com 1.10,2013-01-04 21:09:00,
2013-01-04 15:24:00,27.3,17.0,30.14,West,277,2.0,-999.0,65,-99.99,,,0.00,weatherlink.com 1.10,2013-01-04 21:24:00,
2013-01-04 15:38:00,27.4,17.0,30.14,WSW,237,1.0,-999.0,65,-99.99,,,0.00,weatherlink.com 1.10,2013-01-04 21:38:00,
2013-01-04 15:52:00,26.9,17.0,30.15,SW,231,1.0,-999.0,66,-99.99,,,0.00,weatherlink.com 1.10,2013-01-04 21:52:00,
2013-01-04 16:07:00,26.0,16.0,30.15,SW,221,2.0,-999.0,66,-99.99,,,0.00,weatherlink.com 1.10,2013-01-04 22:07:00,
2013-01-04 16:21:00,25.0,16.0,30.16,SSW,203,0.0,-999.0,68,-99.99,,,0.00,weatherlink.com 1.10,2013-01-04 22:21:00,
2013-01-04 16:35:00,24.1,15.0,30.16,SSW,203,0.0,-999.0,68,-99.99,,,0.00,weatherlink.com 1.10,2013-01-04 22:35:00,
2013-01-04 16:50:00,23.2,15.0,30.16,SSW,204,0.0,-999.0,70,-99.99,,,0.00,weatherlink.com 1.10,2013-01-04 22:50:00,
2013-01-04 17:04:00,22.2,14.0,30.17,SSW,203,0.0,-999.0,71,-99.99,,,0.00,weatherlink.com 1.10,2013-01-04 23:04:00,
2013-01-04 17:19:00,21.3,14.0,30.17,SSW,204,0.0,-999.0,74,-99.99,,,0.00,weatherlink.com 1.10,2013-01-04 23:19:00,
2013-01-04 17:33:00,20.5,14.0,30.16,SSW,204,0.0,-999.0,75,-99.99,,,0.00,weatherlink.com 1.10,2013-01-04 23:33:00,
2013-01-04 17:47:00,19.8,13.0,30.16,SSW,203,0.0,-999.0,75,-99.99,,,0.00,weatherlink.com 1.10,2013-01-04 23:47:00,
2013-01-04 18:01:00,19.1,13.0,30.16,SSW,204,0.0,-999.0,77,-99.99,,,0.00,weatherlink.com 1.10,2013-01-05 00:01:00,
2013-01-04 18:16:00,18.2,12.0,30.17,SSW,203,1.0,-999.0,77,-99.99,,,0.00,weatherlink.com 1.10,2013-01-05 00:16:00,
2013-01-04 18:31:00,17.2,12.0,30.18,SSW,204,0.0,-999.0,78,-99.99,,,0.00,weatherlink.com 1.10,2013-01-05 00:31:00,
2013-01-04 18:45:00,16.7,11.0,30.17,SSW,203,0.0,-999.0,79,-99.99,,,0.00,weatherlink.com 1.10,2013-01-05 00:45:00,
2013-01-04 18:59:00,16.4,11.0,30.17,SSW,203,0.0,-999.0,80,-99.99,,,0.00,weatherlink.com 1.10,2013-01-05 00:59:00,
2013-01-04 19:14:00,16.1,11.0,30.17,SSW,204,1.0,-999.0,81,-99.99,,,0.00,weatherlink.com 1.10,2013-01-05 01:14:00,
2013-01-04 19:28:00,15.7,11.0,30.17,SSW,204,0.0,-999.0,82,-99.99,,,0.00,weatherlink.com 1.10,2013-01-05 01:28:00,
2013-01-04 19:42:00,15.1,10.0,30.16,SSW,204,0.0,-999.0,81,-99.99,,,0.00,weatherlink.com 1.10,2013-01-05 01:42:00,
2013-01-04 19:57:00,14.5,10.0,30.16,SSW,204,0.0,-999.0,81,-99.99,,,0.00,weatherlink.com 1.10,2013-01-05 01:57:00,
2013-01-04 20:11:00,13.9,9.0,30.17,SSW,203,0.0,-999.0,82,-99.99,,,0.00,weatherlink.com 1.10,2013-01-05 02:11:00,
2013-01-04 20:25:00,13.2,9.0,30.17,SSW,204,0.0,-999.0,82,-99.99,,,0.00,weatherlink.com 1.10,2013-01-05 02:25:00,
2013-01-04 20:40:00,12.7,8.0,30.17,SSW,204,0.0,-999.0,82,-99.99,,,0.00,weatherlink.com 1.10,2013-01-05 02:40:00,
2013-01-04 20:54:00,12.7,9.0,30.17,SSW,204,0.0,-999.0,83,-99.99,,,0.00,weatherlink.com 1.10,2013-01-05 02:54:00,
2013-01-04 21:08:00,12.7,9.0,30.17,SSW,204,0.0,-999.0,84,-99.99,,,0.00,weatherlink.com 1.10,2013-01-05 03:08:00,
2013-01-04 21:23:00,12.8,9.0,30.17,SSW,204,0.0,-999.0,84,-99.99,,,0.00,weatherlink.com 1.10,2013-01-05 03:23:00,
2013-01-04 21:37:00,13.1,9.0,30.16,SSW,204,0.0,-999.0,85,-99.99,,,0.00,weatherlink.com 1.10,2013-01-05 03:37:00,
2013-01-04 21:51:00,13.2,10.0,30.16,SSW,204,0.0,-999.0,85,-99.99,,,0.00,weatherlink.com 1.10,2013-01-05 03:51:00,
2013-01-04 22:05:00,13.2,10.0,30.15,ESE,111,1.0,-999.0,85,-99.99,,,0.00,weatherlink.com 1.10,2013-01-05 04:05:00,
2013-01-04 22:19:00,13.1,9.0,30.15,ESE,112,1.0,-999.0,85,-99.99,,,0.00,weatherlink.com 1.10,2013-01-05 04:19:00,
2013-01-04 22:34:00,12.7,9.0,30.14,East,79,0.0,-999.0,85,-99.99,,,0.00,weatherlink.com 1.10,2013-01-05 04:34:00,
2013-01-04 22:48:00,12.8,9.0,30.14,NE,53,0.0,-999.0,85,-99.99,,,0.00,weatherlink.com 1.10,2013-01-05 04:48:00,
2013-01-04 23:02:00,12.4,8.0,30.14,NE,53,1.0,-999.0,84,-99.99,,,0.00,weatherlink.com 1.10,2013-01-05 05:02:00,
2013-01-04 23:19:00,11.7,8.0,30.13,NE,53,1.0,-999.0,84,-99.99,,,0.00,weatherlink.com 1.10,2013-01-05 05:19:00,
2013-01-04 23:33:00,11.9,8.0,30.13,East,89,0.0,-999.0,85,-99.99,,,0.00,weatherlink.com 1.10,2013-01-05 05:33:00,
2013-01-04 23:48:00,11.6,8.0,30.13,East,89,0.0,-999.0,85,-99.99,,,0.00,weatherlink.com 1.10,2013-01-05 05:48:00,